User: anonymous   Login
Location: Newark
(13.5236°S, 71.9791°W)
Time: 09:36:58
(UTC+00:00)
Language:

BUGSAT 1 - Orbit

View from above orbital plane
View from above orbital plane
View from above satellite
View from above satellite

Ground track
Ground track

The orbit data is extracted from the following two-line orbital elements,

1 40014U 14033E   19294.04194125  .00000596  00000-0  59222-4 0  9995
2 40014  98.0287 244.4484 0032464  11.2449 348.9486 14.95335363291089
Epoch (UTC): 21 October 2019 01:00:23
Eccentricity: 0.0032464
inclination: 98.0287°
perigee height: 559 km
apogee height: 604 km
right ascension of ascending node: 244.4484°
argument of perigee: 11.2449°
revolutions per day: 14.95335363
mean anomaly at epoch: 348.9486°
orbit number at epoch: 29108

The dashed part of the orbit path shows where the satellite is in the earth's shadow,  

DLR